Hourly Data Report for September 13, 2017

All times are specified in Local Standard Time (LST). Add 1 hour to adjust for Daylight Saving Time where and when it is observed.

BAKER LAKE A
NUNAVUT

64°17'56.000" N
96°04'40.000" W
18.60 m
2300503
71926
YBK

Download Data

Hourly Data (September 2017)
Hourly Data Report for September 13, 2017
Temp Definition
°C
Dew Point Temp Definition
°C
Rel Hum Definition
%
Wind Dir Definition
10's deg

Wind Spd Definition
km/h
Visibility Definition
km
Stn Press Definition
kPa
Hmdx Definition


Wind Chill Definition


Weather Definition


TIME
00:00 Legend Double Dagger 1.3 -1.4 82 33 16 24.1 101.20     Mainly Clear
01:00 Legend Double Dagger 0.4 -1.8 85 35 14 24.1 101.24     LegendNANA
02:00 Legend Double Dagger -0.9 -3.0 86 35 10 24.1 101.25   -4 LegendNANA
03:00 Legend Double Dagger -1.2 -3.2 86 36 10 24.1 101.30   -5 Mainly Clear
04:00 Legend Double Dagger -1.2 -3.8 83 35 9 24.1 101.33   -4 LegendNANA
05:00 Legend Double Dagger -1.4 -3.1 88 34 13 24.1 101.35   -6 LegendNANA
06:00 Legend Double Dagger -1.6 -3.3 88 34 9 32.2 101.39   -5 Mostly Cloudy
07:00 Legend Double Dagger -0.7 -2.4 88 33 10 24.1 101.44   -4 LegendNANA
08:00 Legend Double Dagger 1.5 -1.1 83 35 9 32.2 101.43     LegendNANA
09:00 Legend Double Dagger 3.9 0.7 80 9 12 32.2 101.43     Mostly Cloudy
10:00 Legend Double Dagger 4.8 0.6 74 12 10 32.2 101.46     LegendNANA
11:00 Legend Double Dagger 5.3 0.6 71 18 8 32.2 101.45     LegendNANA
12:00 Legend Double Dagger 5.5 -0.5 65 15 6 32.2 101.44     Mostly Cloudy
13:00 Legend Double Dagger 5.8 0.0 66 12 7 32.2 101.43     LegendNANA
14:00 Legend Double Dagger 6.3 0.5 66 14 8 32.2 101.43     LegendNANA
15:00 Legend Double Dagger 6.5 -0.5 61 16 5 32.2 101.44     Mostly Cloudy
16:00 Legend Double Dagger 6.3 -0.8 61 19 9 32.2 101.46     LegendNANA
17:00 Legend Double Dagger 6.2 -1.9 56 19 8 32.2 101.46     LegendNANA
18:00 Legend Double Dagger 5.1 -2.2 59 20 7 32.2 101.46     Mostly Cloudy
19:00 Legend Double Dagger 2.9 -2.8 66 24 7 32.2 101.48     LegendNANA
20:00 Legend Double Dagger 2.8 -3.5 63 20 3 24.1 101.50     LegendNANA
21:00 Legend Double Dagger -0.1 -5.4 67 25 3 32.2 101.50   -1 Mostly Cloudy
22:00 Legend Double Dagger 2.1 -4.0 64 36 2 24.1 101.48     LegendNANA
23:00 Legend Double Dagger 0.1 -5.3 67 24 7 24.1 101.49     LegendNANA

Notes on Data Quality.

Legend

  • E = Estimated
  • M = Missing
  • NA = Not Available
  • ‡ = Partner data that is not subject to review by the National Climate Archives
Date modified: